GW3910 Weather Reports


time (UTC)temp
F
wind
direction
speed
knots
gust
knots
rain 1hr
in
rain 24hr
in
rain mn
in
humidity
%
barometer
mb
20260507034113 54 352 0.9 1.7 0.00 0.12 0.12 99 1010.3
20260507033611 56 9 0.9 0.9 0.00 0.12 0.12 99 1010.5
20260507033108 56 328 0.0 0.9 0.00 0.12 0.12 99 1010.4
20260507032605 56 347 0.0 1.7 0.00 0.12 0.12 99 1010.5
20260507032056 56 347 0.0 1.7 0.00 0.12 0.12 99 1010.2
20260507031552 56 302 0.0 0.9 0.00 0.12 0.12 99 1010.0
20260507031049 56 324 0.0 0.9 0.00 0.12 0.12 99 1009.9
20260507030546 56 337 0.0 0.9 0.00 0.12 0.12 99 1010.3
20260507030044 56 317 0.0 0.9 0.00 0.12 0.12 99 1010.1
20260507025541 56 309 0.0 0.9 0.00 0.12 0.12 99 1010.4
20260507025038 56 322 0.0 0.9 0.00 0.12 0.12 99 1010.3
20260507024536 56 293 0.9 2.6 0.00 0.12 0.12 99 1010.1
20260507024032 56 288 0.9 0.9 0.00 0.12 0.12 99 1010.1
20260507023528 56 312 0.0 0.9 0.00 0.12 0.12 99 1010.1
20260507023026 56 290 0.0 0.9 0.00 0.12 0.12 99 1010.2
20260507022523 56 311 0.0 0.9 0.00 0.12 0.12 99 1010.3
20260507022018 56 280 0.9 1.7 0.00 0.12 0.12 99 1010.1
20260507021514 56 241 0.9 1.7 0.00 0.12 0.12 99 1010.1
20260507021011 56 202 2.6 2.6 0.00 0.12 0.12 99 1010.2
20260507020508 56 327 0.0 1.7 0.00 0.12 0.12 99 1010.5
20260507020005 55 263 1.7 1.7 0.00 0.12 0.12 99 1010.3
20260507015503 56 283 0.9 4.3 0.00 0.12 0.12 99 1010.5
20260507014955 56 296 1.7 4.3 0.00 0.12 0.12 99 1010.4
20260507014451 56 307 0.9 2.6 0.00 0.12 0.12 99 1010.4
20260507013947 56 263 0.9 1.7 0.00 0.12 0.12 99 1010.4
20260507013444 56 313 0.9 2.6 0.00 0.12 0.12 99 1010.4
20260507012941 56 332 0.9 2.6 0.00 0.12 0.12 99 1010.6
20260507012437 56 330 0.0 1.7 0.00 0.12 0.12 99 1010.4
20260507011928 56 275 0.9 2.6 0.00 0.12 0.12 99 1010.2
20260507011425 56 340 2.6 4.3 0.00 0.12 0.12 99 1010.0
20260507010920 56 310 0.9 2.6 0.00 0.12 0.12 99 1010.0
20260507010415 56 299 0.9 1.7 0.00 0.12 0.12 99 1010.0
20260507005913 56 49 0.0 1.7 0.00 0.12 0.12 99 1010.3
20260507005409 56 327 1.7 2.6 0.00 0.12 0.12 99 1010.0
20260507004906 56 264 1.7 2.6 0.00 0.12 0.12 99 1010.2
20260507004403 56 162 1.7 1.7 0.00 0.12 0.12 99 1010.2
20260507003900 56 304 2.6 4.3 0.00 0.12 0.12 99 1010.0
20260507003355 56 127 0.9 0.9 0.00 0.12 0.12 99 1010.0
20260507002851 56 222 1.7 4.3 0.00 0.12 0.12 99 1010.2
20260507002347 56 181 1.7 4.3 0.00 0.12 0.12 99 1010.2
20260507001844 56 332 0.9 1.7 0.00 0.12 0.12 99 1010.3
20260507001341 56 328 0.9 1.7 0.00 0.12 0.12 99 1010.3
20260507000838 56 312 0.9 2.6 0.00 0.12 0.12 99 1010.2
20260507000335 56 309 2.6 6.1 0.00 0.12 0.12 99 1010.1
20260506235830 56 215 1.7 2.6 0.00 0.12 0.12 99 1010.2
20260506235327 56 321 2.6 4.3 0.00 0.12 0.12 99 1010.1
20260506234823 56 319 0.9 2.6 0.00 0.12 0.12 99 1010.0
20260506234321 56 290 0.9 2.6 0.00 0.12 0.12 99 1009.9
20260506233818 56 218 0.9 2.6 0.00 0.12 0.12 99 1010.0
20260506233314 56 310 1.7 2.6 0.00 0.12 0.12 99 1010.0
20260506232811 56 187 0.9 2.6 0.00 0.12 0.12 99 1010.0
20260506232306 56 238 3.5 4.3 0.00 0.12 0.12 99 1009.9
20260506231803 56 239 1.7 2.6 0.00 0.12 0.12 99 1009.9
20260506231301 56 314 1.7 1.7 0.00 0.12 0.12 99 1010.0
20260506230758 56 194 1.7 7.0 0.00 0.12 0.12 99 1009.9
20260506230255 56 236 0.9 1.7 0.00 0.12 0.12 99 1009.9
20260506225751 56 231 1.7 2.6 0.00 0.12 0.12 99 1009.9
20260506225248 56 252 0.9 1.7 0.00 0.12 0.12 99 1009.6
20260506224745 55 212 2.6 5.2 0.00 0.12 0.12 99 1009.6
20260506224242 55 208 1.7 6.1 0.00 0.12 0.12 99 1009.7
20260506223732 55 345 0.9 2.6 0.00 0.12 0.12 99 1009.7
20260506223228 56 194 1.7 1.7 0.00 0.12 0.12 99 1009.7
20260506222726 56 312 1.7 1.7 0.00 0.12 0.12 99 1009.7
20260506222221 56 320 0.9 0.9 0.00 0.12 0.12 99 1009.6
20260506221719 55 240 1.7 2.6 0.00 0.12 0.12 99 1009.7
20260506221217 55 310 0.9 0.9 0.00 0.12 0.12 99 1009.6
20260506220714 55 214 1.7 4.3 0.00 0.12 0.12 99 1009.8
20260506220208 56 116 1.7 6.1 0.00 0.12 0.12 98 1009.8
20260506215705 56 212 2.6 5.2 0.00 0.12 0.12 98 1009.8
20260506215201 56 237 1.7 1.7 0.00 0.12 0.12 98 1009.9
20260506214658 56 254 1.7 2.6 0.00 0.12 0.12 98 1009.7
20260506214155 56 284 1.7 5.2 0.00 0.12 0.12 98 1009.8
20260506213654 56 218 1.7 7.0 0.00 0.12 0.12 98 1009.7
20260506213150 56 240 1.7 1.7 0.00 0.12 0.12 98 1009.6
20260506212647 56 242 2.6 2.6 0.05 0.12 0.12 98 1009.7
20260506212142 56 305 2.6 6.1 0.05 0.12 0.12 98 1009.9
20260506211638 56 334 0.9 4.3 0.00 0.11 0.11 98 1009.8
20260506211135 56 196 1.7 4.3 0.07 0.11 0.11 98 1009.9
20260506210632 56 300 0.9 2.6 0.07 0.11 0.11 98 1010.0
20260506210129 56 240 1.7 2.6 0.05 0.10 0.10 98 1009.9
20260506205626 56 222 0.9 4.3 0.05 0.10 0.10 98 1010.1
20260506205120 56 290 1.7 2.6 0.07 0.09 0.09 98 1010.1
20260506204619 56 321 0.0 2.6 0.00 0.08 0.08 98 1010.0
20260506204115 56 232 1.7 2.6 0.00 0.08 0.08 97 1010.0
20260506203614 57 346 0.9 1.7 0.07 0.08 0.08 97 1010.2
20260506203110 57 228 2.6 2.6 0.00 0.07 0.07 97 1010.1
20260506202608 57 309 2.6 5.2 0.00 0.07 0.07 97 1010.3
20260506202104 57 354 3.5 4.3 0.00 0.07 0.07 97 1010.3
20260506201601 57 275 3.5 4.3 0.00 0.07 0.07 97 1010.3
20260506201058 57 227 2.6 4.3 0.00 0.07 0.07 97 1010.3
20260506200554 57 195 0.9 2.6 0.00 0.07 0.07 97 1010.3
20260506200051 57 314 0.9 4.3 0.00 0.07 0.07 97 1010.4
20260506195547 57 329 2.6 4.3 0.00 0.07 0.07 97 1010.4
20260506195044 57 311 2.6 4.3 0.00 0.07 0.07 97 1010.7
20260506194543 57 235 0.9 2.6 0.00 0.07 0.07 97 1010.4
20260506194038 57 313 1.7 4.3 0.00 0.07 0.07 97 1010.7
20260506193536 57 315 2.6 4.3 0.00 0.07 0.07 97 1010.9
20260506193032 57 295 0.9 5.2 0.00 0.07 0.07 97 1010.9
20260506192529 56 325 0.9 5.2 0.00 0.07 0.07 97 1010.8
20260506192025 56 252 1.7 2.6 0.00 0.07 0.07 97 1010.9
20260506191522 56 230 2.6 4.3 0.00 0.07 0.07 97 1011.0
20260506191018 57 250 3.5 4.3 0.05 0.07 0.07 97 1010.9
20260506190515 57 230 3.5 5.2 0.05 0.07 0.07 96 1011.1
20260506190013 56 239 1.7 2.6 0.00 0.06 0.06 96 1010.9
20260506185510 57 282 3.5 5.2 0.00 0.06 0.06 96 1010.9
20260506185006 56 295 0.9 1.7 0.07 0.06 0.06 96 1011.1
20260506184504 56 119 1.7 2.6 0.05 0.05 0.05 96 1011.1
20260506184001 56 253 0.9 2.6 0.12 0.05 0.05 95 1011.1
20260506183456 57 253 1.7 4.3 0.00 0.03 0.03 95 1011.0
20260506182953 57 190 0.9 4.3 0.05 0.03 0.03 95 1010.9
20260506182450 57 186 0.9 4.3 0.05 0.03 0.03 94 1011.0
20260506181947 57 151 4.3 6.1 0.00 0.02 0.02 94 1011.2
20260506181445 57 293 1.7 4.3 0.07 0.02 0.02 94 1011.4
20260506180941 57 205 2.6 6.1 0.07 0.02 0.02 93 1011.4
20260506180438 57 186 2.6 4.3 0.00 0.01 0.01 93 1011.7
20260506175929 58 320 0.9 1.7 0.05 0.01 0.01 92 1011.7
20260506175426 58 154 2.6 4.3 0.05 0.01 0.01 91 1012.0
20260506174923 58 208 1.7 2.6 0.00 0.00 0.00 91 1012.1
20260506174421 59 288 1.7 1.7 0.00 0.00 0.00 89 1012.3
20260506173917 59 176 1.7 2.6 0.00 0.00 0.00 88 1012.1
20260506173414 59 197 3.5 5.2 0.00 0.00 0.00 88 1012.0
20260506172911 59 284 1.7 2.6 0.00 0.00 0.00 87 1012.2
20260506172408 59 256 0.9 2.6 0.00 0.00 0.00 86 1012.3
20260506171905 60 284 0.9 5.2 0.00 0.00 0.00 84 1012.5
20260506171402 60 296 1.7 4.3 0.00 0.00 0.00 83 1012.5
20260506170900 60 338 1.7 4.3 0.00 0.00 0.00 83 1012.7
20260506170355 60 227 1.7 4.3 0.00 0.00 0.00 83 1012.5
20260506165849 61 313 2.6 4.3 0.00 0.00 0.00 82 1012.5
20260506165347 61 320 0.9 5.2 0.00 0.00 0.00 82 1012.6
20260506164843 61 302 1.7 5.2 0.00 0.00 0.00 81 1012.6
20260506164339 61 341 2.6 5.2 0.00 0.00 0.00 81 1012.5
20260506163838 62 300 1.7 8.7 0.00 0.00 0.00 81 1012.7
20260506163332 62 185 4.3 6.1 0.00 0.00 0.00 80 1012.6
20260506162827 62 205 0.9 5.2 0.00 0.00 0.00 79 1012.3
20260506162325 62 136 2.6 2.6 0.00 0.00 0.00 80 1012.5
20260506161823 62 230 3.5 7.8 0.00 0.00 0.00 79 1012.8
20260506161319 62 220 2.6 6.1 0.00 0.00 0.00 79 1012.6
20260506160818 63 194 2.6 5.2 0.00 0.00 0.00 79 1012.8
20260506160314 62 214 4.3 7.0 0.00 0.00 0.00 79 1013.0
20260506155813 62 158 2.6 7.0 0.00 0.00 0.00 80 1012.9
20260506155309 62 186 1.7 2.6 0.00 0.00 0.00 80 1013.1
20260506153421 63 345 0.9 6.1 0.00 0.00 0.00 78 1013.1
20260506152918 64 193 3.5 12.2 0.00 0.00 0.00 77 1013.0
20260506152415 64 333 1.7 2.6 0.00 0.00 0.00 77 1013.0
20260506151914 64 239 2.6 7.0 0.00 0.00 0.00 77 1012.7
20260506151410 65 343 2.6 5.2 0.00 0.00 0.00 76 1013.0
20260506150908 65 222 1.7 2.6 0.00 0.00 0.00 75 1013.0
20260506150404 66 314 0.9 5.2 0.00 0.00 0.00 74 1013.2
20260506145901 66 261 2.6 4.3 0.00 0.00 0.00 74 1013.0
20260506145357 66 191 1.7 4.3 0.00 0.00 0.00 74 1013.1
20260506144855 66 247 4.3 5.2 0.00 0.00 0.00 74 1013.2
20260506144351 65 173 2.6 7.0 0.00 0.00 0.00 76 1013.0
20260506143850 65 156 2.6 5.2 0.00 0.00 0.00 74 1013.2
20260506143346 65 215 4.3 7.0 0.00 0.00 0.00 73 1013.5
20260506142845 65 232 2.6 5.2 0.00 0.00 0.00 76 1013.2
20260506142342 64 239 2.6 7.0 0.00 0.00 0.00 77 1013.3
20260506141840 64 193 3.5 4.3 0.00 0.00 0.00 75 1013.3
20260506141338 65 187 0.9 7.0 0.00 0.00 0.00 76 1013.4
20260506140836 64 312 0.9 4.3 0.00 0.00 0.00 76 1013.2
20260506140332 64 1 2.6 4.3 0.00 0.00 0.00 76 1013.3
20260506135829 64 300 4.3 5.2 0.00 0.00 0.00 77 1013.1
20260506135326 64 233 4.3 6.1 0.00 0.00 0.00 76 1013.3
20260506134822 64 276 4.3 5.2 0.00 0.00 0.00 76 1013.2
20260506134319 63 219 1.7 4.3 0.00 0.00 0.00 78 1013.1
20260506133816 62 354 1.7 6.1 0.00 0.00 0.00 79 1012.9
20260506133313 62 249 1.7 5.2 0.00 0.00 0.00 79 1013.0
20260506132809 63 170 2.6 5.2 0.00 0.00 0.00 78 1013.1
20260506132307 63 297 1.7 5.2 0.00 0.00 0.00 78 1012.9
20260506131805 63 214 0.9 6.1 0.00 0.00 0.00 79 1013.1
20260506131300 62 232 1.7 5.2 0.00 0.00 0.00 79 1013.0
20260506130757 62 310 2.6 6.1 0.00 0.00 0.00 80 1013.2
20260506130254 62 317 3.5 6.1 0.00 0.00 0.00 79 1013.2
20260506125752 62 161 0.9 5.2 0.00 0.00 0.00 79 1013.1
20260506125250 62 246 2.6 5.2 0.00 0.00 0.00 80 1013.3
20260506124748 62 256 3.5 6.1 0.00 0.00 0.00 79 1013.4
20260506124245 62 333 1.7 6.1 0.00 0.00 0.00 80 1013.5
20260506123743 62 310 1.7 5.2 0.00 0.00 0.00 81 1013.6
20260506123242 61 317 2.6 5.2 0.00 0.00 0.00 82 1013.6
20260506122738 61 225 2.6 6.1 0.00 0.00 0.00 82 1013.4
20260506122235 60 290 1.7 6.1 0.00 0.00 0.00 83 1013.5
20260506121733 60 256 5.2 7.0 0.00 0.00 0.00 84 1013.4
20260506121229 59 306 4.3 5.2 0.00 0.00 0.00 85 1013.4
20260506120727 59 274 0.9 6.1 0.00 0.00 0.00 86 1013.5
20260506120225 59 297 0.9 4.3 0.00 0.00 0.00 86 1013.5
20260506115722 59 317 1.7 4.3 0.00 0.00 0.00 86 1013.6
20260506115220 59 310 4.3 7.8 0.00 0.00 0.00 87 1013.3
20260506114718 59 179 1.7 5.2 0.00 0.00 0.00 87 1013.6
20260506114215 59 316 2.6 2.6 0.00 0.00 0.00 87 1013.4
20260506113713 59 303 2.6 7.8 0.00 0.00 0.00 87 1013.5
20260506113211 59 309 1.7 2.6 0.00 0.00 0.00 88 1013.6
20260506112707 58 210 4.3 5.2 0.00 0.00 0.00 89 1013.7
20260506112205 57 259 0.9 6.1 0.00 0.00 0.00 90 1013.6
20260506111702 57 236 3.5 6.1 0.00 0.00 0.00 90 1013.7
20260506111159 57 249 1.7 4.3 0.00 0.00 0.00 91 1013.8
20260506110656 57 240 1.7 4.3 0.00 0.00 0.00 91 1013.7
20260506110154 57 311 2.6 4.3 0.00 0.00 0.00 91 1013.5
20260506105650 56 237 0.9 4.3 0.00 0.00 0.00 92 1013.6
20260506105147 56 27 0.9 2.6 0.00 0.00 0.00 92 1013.7
20260506104646 56 215 2.6 5.2 0.00 0.00 0.00 92 1013.7
20260506104143 56 234 1.7 2.6 0.00 0.00 0.00 93 1013.6
20260506103640 56 214 1.7 4.3 0.00 0.00 0.00 93 1013.7
20260506103137 56 234 1.7 4.3 0.00 0.00 0.00 93 1013.7
20260506102635 56 154 1.7 6.1 0.00 0.00 0.00 93 1013.7
20260506102132 55 251 1.7 4.3 0.00 0.00 0.00 93 1013.5
20260506101629 55 272 1.7 5.2 0.00 0.00 0.00 93 1013.5
20260506101125 55 199 1.7 2.6 0.00 0.00 0.00 93 1013.5
20260506100624 55 254 2.6 5.2 0.00 0.00 0.00 92 1013.6
20260506100121 56 252 2.6 2.6 0.00 0.00 0.00 92 1013.6
20260506095620 55 195 1.7 4.3 0.00 0.00 0.00 92 1013.6
20260506095116 56 237 0.9 4.3 0.00 0.00 0.00 92 1013.6
20260506094614 56 282 2.6 2.6 0.00 0.00 0.00 92 1013.6
20260506094111 56 251 0.9 4.3 0.00 0.00 0.00 92 1013.2
20260506093610 56 273 0.9 1.7 0.00 0.00 0.00 91 1013.4
20260506093107 56 339 1.7 5.2 0.00 0.00 0.00 91 1013.4
20260506092605 56 246 1.7 2.6 0.00 0.00 0.00 91 1013.4
20260506092101 56 275 0.9 4.3 0.00 0.00 0.00 91 1013.3
20260506091600 56 248 2.6 4.3 0.00 0.00 0.00 91 1013.6
20260506091057 56 238 0.9 4.3 0.00 0.00 0.00 91 1013.6
20260506090554 56 245 0.9 2.6 0.00 0.00 0.00 90 1013.5
20260506090050 56 228 3.5 6.1 0.00 0.00 0.00 90 1013.6
20260506085547 56 184 1.7 2.6 0.00 0.00 0.00 90 1013.9
20260506085044 56 335 2.6 5.2 0.00 0.00 0.00 90 1013.7
20260506084541 56 234 1.7 6.1 0.00 0.00 0.00 90 1013.7
20260506084037 56 213 2.6 4.3 0.00 0.00 0.00 90 1013.6
20260506083534 56 250 2.6 5.2 0.00 0.00 0.00 89 1013.7
20260506083032 56 179 3.5 5.2 0.00 0.00 0.00 89 1013.7
20260506082528 56 230 1.7 4.3 0.00 0.00 0.00 89 1013.6
20260506082024 56 309 0.9 2.6 0.00 0.00 0.00 89 1013.8
20260506081522 57 224 1.7 5.2 0.00 0.00 0.00 89 1013.7
20260506081020 56 228 0.9 5.2 0.00 0.00 0.00 89 1013.7
20260506080517 56 236 0.9 1.7 0.00 0.00 0.00 89 1014.0
20260506073500 57 70 0.9 2.6 0.00 0.00 0.00 88 1013.9
20260506072957 57 247 1.7 4.3 0.00 0.00 0.00 87 1013.9
20260506072454 57 232 2.6 4.3 0.00 0.00 0.00 87 1013.8
20260506071952 57 185 1.7 2.6 0.00 0.00 0.00 87 1013.9
20260506071450 57 231 3.5 7.0 0.00 0.00 0.00 87 1014.0
20260506070947 57 251 1.7 2.6 0.00 0.00 0.00 87 1013.9
20260506070444 57 201 2.6 2.6 0.00 0.00 0.00 86 1013.7
20260506062422 57 282 0.9 4.3 0.00 0.00 0.00 85 1013.6
20260506061917 58 177 2.6 4.3 0.00 0.00 0.00 85 1014.0
20260506061414 58 194 2.6 5.2 0.00 0.00 0.00 84 1013.9
20260506060912 58 324 1.7 6.1 0.00 0.00 0.00 84 1013.9
20260506060410 58 274 0.0 4.3 0.00 0.00 0.00 84 1014.2
20260506051342 58 240 2.6 4.3 0.00 0.00 0.00 83 1014.2
20260506050839 59 3 3.5 6.1 0.00 0.00 0.00 82 1014.4
20260506050336 59 280 1.7 2.6 0.00 0.00 0.00 83 1014.5
20260506044827 59 269 1.7 6.1 0.00 0.00 0.00 82 1014.4
20260506044325 59 233 5.2 7.8 0.00 0.00 0.00 82 1014.5
20260506043821 59 255 0.9 2.6 0.00 0.00 0.00 82 1014.4
20260506043319 59 192 2.6 7.0 0.00 0.00 0.00 81 1014.4
20260506042817 59 297 4.3 6.1 0.00 0.00 0.00 82 1014.3
20260506042316 59 305 5.2 8.7 0.00 0.00 0.00 81 1014.4
20260506041814 59 131 5.2 6.1 0.00 0.00 0.00 81 1014.6
20260506041311 59 259 4.3 5.2 0.00 0.00 0.00 81 1014.5
20260506040808 59 219 3.5 5.2 0.00 0.00 0.00 81 1014.5
20260506040305 59 190 2.6 4.3 0.00 0.00 0.00 81 1014.7
20260506035801 59 260 2.6 5.2 0.00 0.00 0.00 80 1014.5
20260506035259 59 305 5.2 9.6 0.00 0.00 0.00 80 1014.6
20260506034756 59 193 2.6 2.6 0.00 0.00 0.00 80 1014.6
20260506034253 60 224 1.7 5.2 0.00 0.00 0.00 79 1014.5